STARLINK-4138 (53535 NORAD) Tracking and Keplerian Element Data

This shows tracking and keplerian element data for the satellite.

Feedback or suggestion? Click here.




ElementValue
Catalog53535
NameSTARLINK-4138
Epoch Orbit1427
Epoch Day324.82113448
Epoch Year2022
RAAN82.9752
Inclination53.2195
Eccentricity0.0001685
Argument of Perigee44.6324
Mean Anonmoly315.4804
Mean Motion15.08828281
Decay Rate-3.82E-06
L11 53535U 22101J 22324.82113448 -.00000382 00000+0 -58837-5 0 9991
L22 53535 53.2195 82.9752 0001685 44.6324 315.4804 15.08828281 14276



Live tracking and technical data element details for STARLINK-4138 (NORAD 53535). STARLINK-4138 can be tracked NOW for your location showing map with azimuth and elevation plus other details from your city location.







IsCatalogInMostPopularTable: catalog: 53535, numindb: 2
Update: records affected: 1



GetName: 53535 STARLINK-4138

Hit Count: updated at: Thu, 08 Dec 2022 19:49:58 GMT